Flag for Russia Weather past 2 weeks in Yuzhno-Sakhalinsk, Russia

Now
30 °F

Passing clouds.


Feels Like: 23 °F
Forecast: 25 / 41 °F
Wind: 8 mph from North

Location: Yuzhno Airport-Sakhalinsk

Current Time: Mar 30, 2015 at 2:35:51 AM

Latest Report: Mar 30, 2015 at 2:00 AM


Visibility: N/A

Pressure: 29.95 "Hg

Humidity: 93%

Dew point: 28 °F

Location of Yuzhno-SakhalinskLocation

Historic Weather in Yuzhno-Sakhalinsk — Graph

°F

Yuzhno-Sakhalinsk temperature yesterday

Maximum temperature yesterday: 34 °F (at 12:30 PM)
Minimum temperature yesterday: 30 °F (at 1:00 AM)
Average temperature yesterday: 32 °F

Past Weeks' High & Low Weather Summary

 TemperatureHumidityPressure
High50 °F (Mar 27, 2:30 PM)100% (Mar 16, 5:00 AM)30.24 "Hg (Mar 16, 5:00 AM)
Low5 °F (Mar 26, 6:00 AM)34% (Mar 26, 4:30 PM)29.56 "Hg (Mar 27, 12:30 PM)
Average32 °F81%29.93 "Hg
* Reported Mar 15 1:00 AM — Mar 30 1:00 AM, Yuzhno-Sakhalinsk, Weather by CustomWeather, © 2015

Note: Actual official high and low records may vary slightly from our data, if they occured in-between our weather recording intervals... More about our weather records

Advertising

Yuzhno-Sakhalinsk weather history for previous 24 hours

 ConditionsComfort  
Time TempWeatherWind HumidityBarometerVisibility
1:00 AM
Mon, Mar 30
30 °FPassing clouds.10 mph93%29.95 "HgN/A
12:00 AM30 °FPassing clouds.10 mph93%29.95 "HgN/A
11:00 PM
Sun, Mar 29
30 °FPassing clouds.10 mph93%29.92 "HgN/A
10:00 PM30 °FPassing clouds.15 mph100%29.89 "HgN/A
9:30 PM30 °FPassing clouds.15 mph93%29.89 "HgN/A
9:00 PM30 °FPartly cloudy.15 mph93%29.86 "HgN/A
8:30 PM32 °FPassing clouds.15 mph93%29.86 "HgN/A
8:00 PM32 °FPassing clouds.15 mph93%29.83 "HgN/A
7:30 PM32 °FPassing clouds.17 mph93%29.83 "HgN/A
7:00 PM32 °FPassing clouds.15 mph93%29.80 "Hg4 mi
6:30 PM32 °FIce fog.8 mph93%29.80 "Hg3 mi
6:00 PM32 °FIce fog.3 mph100%29.77 "Hg3 mi
5:30 PM32 °FIce fog.No wind100%29.77 "Hg2 mi
5:00 PM32 °FIce fog.1 mph100%29.77 "Hg2 mi
4:30 PM32 °FIce fog.1 mph100%29.77 "Hg2 mi
4:00 PM32 °FPartly sunny.1 mph100%29.74 "Hg4 mi
3:30 PM32 °FSprinkles. Ice fog.3 mph100%29.74 "Hg3 mi
3:00 PM32 °FSprinkles. Ice fog.3 mph100%29.74 "Hg2 mi
2:30 PM32 °FSprinkles. Ice fog.6 mph100%29.74 "Hg2 mi
2:00 PM34 °FSprinkles. Fog.No wind93%29.74 "Hg1 mi
1:30 PM34 °FSprinkles. Fog.1 mph93%29.77 "Hg1 mi
1:00 PM34 °FSprinkles. Fog.No wind93%29.77 "Hg1 mi
12:30 PM34 °FRain showers. Fog.No wind93%29.77 "Hg1 mi
12:00 PM32 °FSnow showers. Ice fog.No wind100%29.77 "Hg1 mi
11:30 AM32 °FSnow flurries. Ice fog.No wind100%29.80 "Hg1 mi
11:00 AM32 °FSnow showers. Ice fog.1 mph93%29.80 "Hg1 mi
10:30 AM32 °FSprinkles. Ice fog.6 mph93%29.80 "Hg1 mi
10:00 AM32 °FSprinkles. Ice fog.3 mph100%29.80 "Hg1 mi
9:30 AM32 °FSprinkles. Ice fog.1 mph100%29.80 "Hg1 mi
9:00 AM32 °FSprinkles. Ice fog.No wind100%29.83 "Hg1 mi
8:30 AM32 °FSprinkles. Ice fog.No wind100%29.83 "Hg1 mi
8:00 AM32 °FRain showers. Ice fog.No wind100%29.83 "Hg1 mi
7:30 AM32 °FSprinkles. Ice fog.1 mph100%29.83 "Hg2 mi
7:00 AM32 °FSprinkles. Ice fog.3 mph100%29.83 "Hg1 mi
6:30 AM32 °FIce fog.1 mph100%29.86 "Hg2 mi
6:00 AM32 °FIce fog.No wind93%29.86 "Hg2 mi
5:00 AM32 °FIce fog.No wind93%29.86 "Hg1 mi
4:00 AM30 °FIce fog.3 mph100%29.89 "Hg1 mi
3:00 AM30 °FClear.3 mph100%29.89 "HgN/A
2:00 AM30 °FClear.6 mph100%29.92 "HgN/A
Weather by CustomWeather, © 2015

See weather overviewHow to use our weather pages